Regional Weather Roundup
Issued by NWS

Home | Current Version | Previous Version | Graphics & Text | Print | Product List | Glossary On
Versions: 1 2 3 4 5 6 7 8 9 10 11 12 13 14 15 16 17 18 19 20 21 22 23 24 25 26 27 28 29 30 31 32 33 34 35 36 37 38 39 40 41 42 43 44 45 46 47 48 49 50
000
ASUS43 KLOT 230506
RWRIL

ILLINOIS REGIONAL WEATHER ROUNDUP
NATIONAL WEATHER SERVICE CHICAGO/ROMEOVILLE IL
1200 AM CDT WED APR 23 2014

NOTE: "FAIR" INDICATES FEW OR NO CLOUDS BELOW 12,000 FEET WITH NO
SIGNIFICANT WEATHER AND/OR OBSTRUCTIONS TO VISIBILITY.

* THESE STATIONS ARE NOT UNDER NWS QUALITY CONTROL. THEY ALSO MAY NOT
  REPORT WEATHER SUCH AS PRECIPITATION OR FOG.

ILZ001-002-007-009-015-016-024-230600-
NORTHWEST ILLINOIS

CITY           SKY/WX    TMP DP  RH WIND       PRES   REMARKS
MOLINE         CLEAR     41  31  67 CALM      30.06R
STERLING*      CLEAR     41  30  65 E14       30.08R
SAVANNA*       CLEAR     46  29  51 NE9       30.08R
$$

ILZ003-004-008-010-011-017-018-230600-
NORTH CENTRAL ILLINOIS

CITY           SKY/WX    TMP DP  RH WIND       PRES   REMARKS
ROCKFORD       CLEAR     40  27  59 CALM      30.12R
FREEPORT*      CLEAR     36  30  80 SE5       30.11S WCI  32
ROCHELLE*      CLEAR     36  28  73 E3        30.10R
DE KALB*       CLEAR     35  26  69 E3        30.09R
PERU*          CLEAR     40  32  72 CALM      30.09R
$$

ILZ005-006-012>014-019>023-230600-
NORTHEAST ILLINOIS

CITY           SKY/WX    TMP DP  RH WIND       PRES   REMARKS
CHICAGO-OHARE  CLEAR     39  26  59 N3        30.08R
CHICAGO-MIDWAY CLEAR     42  28  57 NE10      30.08R
AURORA         CLEAR     38  26  62 NE5       30.09R WCI  34
LANSING*       CLEAR     39  28  64 CALM      30.08S
JOLIET*        CLEAR     39  28  62 NE3       30.09S
WAUKEGAN       CLEAR     36  28  73 NE8       30.10R WCI  30
DUPAGE AIRPORT CLEAR     37  27  67 N3        30.08R
KANKAKEE*      CLEAR     38  31  76 NE6       30.08R WCI  33
WHEELING       CLEAR     38  29  70 N5        30.10R WCI  34
MORRIS*        CLEAR     38  28  67 CALM      30.09R
NORTHERLY ISL    N/A     41  30  65 N13         N/A
$$

LMZ740>746-230600-
SOUTHERN LAKE MICHIGAN

STATION/POSITION SKY/WX   TEMP    WIND        PRES    VSBY  WAVE
                          AIR SEA DIR/SP/G                  HT/PER
                          (F)     (DEG/KT/KT) (MB)    (MI)  (FT/S)
WAUKEGAN HARBOR            40      30/ 16/ 19 1020.3S
HARRISON CRIB              41     360/  9/ 12   N/A
BURNHAM HARBOR             41      10/  9/ 13   N/A
CALUMET HARBOR             40     340/  4/  5 1019.3R
MICHIGAN CITY              39     330/ 13/ 15   N/A
$$

ILZ025>027-034>036-040-047-049-050-058-095>099-230600-
WEST-CENTRAL ILLINOIS

CITY           SKY/WX    TMP DP  RH WIND       PRES   REMARKS
QUINCY         CLEAR     47  30  51 N8        30.04R
GALESBURG*     CLEAR     42  30  62 N6        30.05R
MACOMB*        CLEAR     45  32  58 N6        30.07S
JACKSONVILLE*  CLEAR     47  31  54 N9        30.04S
PITTSFIELD*    CLEAR     48  34  58 NW5       30.05R
$$

ILZ028>032-037-038-041>044-048-051>054-059>061-230600-
CENTRAL ILLINOIS

CITY           SKY/WX    TMP DP  RH WIND       PRES   REMARKS
PONTIAC        CLEAR     41  30  65 E6        30.09R
BLOOMINGTON    CLEAR     39  31  73 NE12      30.08R WCI  32
DECATUR        CLEAR     44  33  65 NE10      30.04R
PEORIA         CLEAR     47  34  60 E12       30.06R
LACON*         CLEAR     40  33  74 E8        30.08R
LINCOLN*       CLEAR     45  35  68 NE6       30.05R
SPRINGFIELD    CLEAR     50  29  44 N5        30.04R
TAYLORVILLE    CLEAR     46  32  57 N5        30.03R
$$

ILZ033-039-045-046-055>057-062-063-230600-
EAST-CENTRAL ILLINOIS

CITY           SKY/WX    TMP DP  RH WIND       PRES   REMARKS
CHAMPAIGN      CLEAR     45  32  60 NE16      30.04R
RANTOUL*       CLEAR     45  32  60 NE15      30.07R
MATTOON        CLEAR     46  34  62 N10       30.01R
PARIS*         CLEAR     46  37  69 NE7       30.04R
$$

ILZ079-100>102-230600-
SOUTHWEST ILLINOIS

CITY           SKY/WX    TMP DP  RH WIND       PRES   REMARKS
ALTON          CLEAR     46  38  73 CALM      30.03R
BELLEVILLE     CLEAR     52  35  53 N5        30.01R
CAHOKIA*       CLEAR     48  41  76 SE3       30.02R
SPARTA*        CLEAR     52  36  54 CALM      30.02R
$$

ILZ064>066-069>071-074>076-080>082-084>086-088>090-092>094-230600-
SOUTH-CENTRAL ILLINOIS

CITY           SKY/WX    TMP DP  RH WIND       PRES   REMARKS
CARBONDALE     CLEAR     50  42  74 CALM      30.00R
CAIRO*         CLEAR     52  42  68 CALM      29.99S
MARION         CLEAR     50  39  66 CALM      30.00R
MT. VERNON     CLEAR     43  30  61 CALM      30.01R
CENTRALIA*       N/A     49  36  61 CALM      30.00S
SALEM*         CLEAR     53  37  54 N3        30.01S
METROPOLIS*    CLEAR     50  39  66 CALM      29.98R
$$

ILZ067-068-072-073-078-083-087-091-230600-
SOUTHEAST ILLINOIS

CITY           SKY/WX    TMP DP  RH WIND       PRES   REMARKS
FAIRFIELD*     CLEAR     54  37  54 N6        30.00R
HARRISBURG*    CLEAR     53  36  53 N3        30.00R
ROBINSON*      CLEAR     46  41  81 CALM      30.01S
CARMI*         CLEAR     52  42  70 N6        29.98S
$$

ABBREVIATIONS USED IN REMARKS
   TC - TEMPERATURE IN CELSIUS
  WCI - WIND CHILL INDEX
   HX - HEAT INDEX
  VSB - VISIBILITY
$$




USA.gov is the U.S. government's official web portal to all federal, state and local government web resources and services.